User: anonymous   Login
Location: Unspecified
(0.0000°N, 0.0000°E)
Time: 22:50:11
(UTC+00:00)
Language:

Amsat-Oscar-6 - Orbit

View from above orbital plane
View from above orbital plane
View from above satellite
View from above satellite

Ground track
Ground track

The orbit data is extracted from the following two-line orbital elements,

1  6236U 72082B   17113.88907229 -.00000027 +00000-0 +11106-3 0  9996
2  6236 101.7047 079.8615 0004545 066.1392 350.6063 12.53136396036427
Epoch (UTC): 23 April 2017 21:20:15
Eccentricity: 0.0004545
inclination: 101.7047°
perigee height: 1448 km
apogee height: 1455 km
right ascension of ascending node: 79.8615°
argument of perigee: 66.1392°
revolutions per day: 12.53136396
mean anomaly at epoch: 350.6063°
orbit number at epoch: 3642

The dashed part of the orbit path shows where the satellite is in the earth's shadow,  

DLR